Regional Weather Roundup
Issued by NWS

Home | Current Version | Previous Version | Text Only | Print | Product List | Glossary Off
Versions: 1 2 3 4 5 6 7 8 9 10 11 12 13 14 15 16 17 18 19 20 21 22 23 24 25 26 27 28 29 30 31 32 33 34 35 36 37 38 39 40 41 42 43 44 45 46 47 48 49 50

319
ASUS43 KOAX 232110
RWRNE

WEATHER ROUNDUP FOR NEBRASKA
NATIONAL WEATHER SERVICE OMAHA NE
400 PM CDT WED AUG 23 2017

NOTES: SATELLITE DATA IS BEING USED TO AUGMENT CLOUD COVER ABOVE
       12000 FEET.
       "FAIR" INDICATES FEW OR NO CLOUDS BELOW 12,000 FEET WITH NO
       SIGNIFICANT WEATHER AND/OR OBSTRUCTIONS TO VISIBILITY.


NEZ001>004-019>022-054>056-232200-
NEBRASKA PANHANDLE

CITY           SKY/WX    TMP DP  RH WIND       PRES   REMARKS
SCOTTSBLUFF    SUNNY     89  60  37 E10       30.02F
ALLIANCE       SUNNY     86  56  35 S9        30.03F
CHADRON        SUNNY     94  47  20 NW8       29.96F HX  90
GORDON         FAIR      90  55  30 SW9       29.99F
KIMBALL        SUNNY     89  49  25 SE7G16    30.10F
SIDNEY         SUNNY     91  56  30 E7        30.06F
$$

NEZ057>060-069>072-079>082-232200-
SOUTHWEST NEBRASKA

CITY           SKY/WX    TMP DP  RH WIND       PRES   REMARKS
NORTH PLATTE   SUNNY     83  60  45 S17G24    30.04F
IMPERIAL       SUNNY     86  58  38 S17G24    30.04F
LEXINGTON      SUNNY     82  53  36 S15G22    30.06F
MCCOOK         SUNNY     85  55  35 S14G23    30.05F
OGALLALA       SUNNY     85  62  44 S10G20    30.04F
$$

NEZ005>010-023>029-035>040-094-232200-
NORTH CENTRAL NEBRASKA

CITY           SKY/WX    TMP DP  RH WIND       PRES   REMARKS
VALENTINE      SUNNY     90  57  32 S18G24    29.96F
AINSWORTH      SUNNY     84  60  45 SW15      29.99F
BROKEN BOW     SUNNY     83  53  35 SW14G25   30.05F
O`NEILL        SUNNY     81  57  43 S17       30.02F
ORD            SUNNY     79  53  40 S17G25    30.04F
THEDFORD       SUNNY     85  58  40 S21G29    30.02F
$$

NEZ041-046>049-061>064-073>077-083>087-232200-
SOUTH CENTRAL NEBRASKA

CITY           SKY/WX    TMP DP  RH WIND       PRES   REMARKS
GRAND ISLAND   SUNNY     79  58  48 S14       30.08F
AURORA         SUNNY     78  56  46 S8        30.08F
HASTINGS       SUNNY     80  55  42 S7        30.09F
HEBRON         SUNNY     83  51  33 S6        30.08F
HOLDREGE       SUNNY     80  49  33 S10       30.08F
KEARNEY        SUNNY     80  56  43 S15       30.08F
YORK           SUNNY     77  59  53 S9        30.09F
$$

NEZ011>018-030>034-042>045-232200-
NORTHEAST NEBRASKA

CITY           SKY/WX    TMP DP  RH WIND       PRES   REMARKS
NORFOLK        SUNNY     78  58  49 S13       30.04F
ALBION         SUNNY     79  61  53 S12       30.06F
BLAIR          SUNNY     78  58  51 S7        30.08F
COLUMBUS       SUNNY     77  59  53 S12       30.08F
FREMONT        SUNNY     77  57  49 S7        30.09F
TEKAMAH        SUNNY     78  57  48 S9        30.07F
WAYNE          SUNNY     76  58  53 S12       30.06F
$$

NEZ050>053-065>068-078-088>093-232200-
SOUTHEAST NEBRASKA

CITY           SKY/WX    TMP DP  RH WIND       PRES   REMARKS
LINCOLN        SUNNY     80  57  45 S9        30.09F
OMAHA EPPLEY   SUNNY     79  54  41 VRB6      30.08F
BEATRICE       SUNNY     81  55  40 E8        30.08F
FALLS CITY     SUNNY     79  55  43 E5        30.09F
NEBRASKA CITY  SUNNY     77  57  49 E5        30.10F
PLATTSMOUTH    SUNNY     78  55  44 S6        30.10F
$$

NEZ044-045-051>053-067-232200-
OMAHA AREA

CITY           SKY/WX    TMP DP  RH WIND       PRES   REMARKS
OMAHA EPPLEY   SUNNY     79  54  41 VRB6      30.08F
BLAIR          SUNNY     78  58  51 S7        30.08F
FREMONT        SUNNY     77  57  49 S7        30.09F
MILLARD        SUNNY     80  58  46 S7        30.08F
OFFUTT AFB     SUNNY     79  55  42 SE5       30.08F
PLATTSMOUTH    SUNNY     78  55  44 S6        30.10F
WAHOO          FAIR      78  58  49 S7        30.08F
$$




USA.gov is the U.S. government's official web portal to all federal, state and local government web resources and services.